[[{"header":{"parameterUnit":"m.s-1","parameterCategory":1,"la1":30.2991,"la2":30.254,"lo1":-89.0895,"lo2":-89.0444,"dy":0.0017,"dx":0.0017,"nx":28,"ny":28,"refTime":"2024-03-27T21:00:00:Z","depth":0,"parameterNumber":2,"parameterNumberName":"U-component_of_WINDS"},"data":[0,0,0,0,0,0,0,0,0,0,0,0,0,0,0,0,0,0,0,0,0,0,0,0,0,0,0,0,0,0,0,0,0,0,0,0,0,0,0,0,0,0,0,0,0,0,0,0,0,0,0,0,0,0,0,0,0,0,1.2998,1.2997,0,1.2939,1.2938,1.2938,1.2903,1.2902,1.2902,1.2902,1.2837,1.2836,1.2834,0,0,0,0,0,0,0,0,0,0,0,0,0,1.3077,1.3075,1.2998,1.2997,1.2997,1.2939,1.2938,1.2937,1.2903,1.2902,1.2902,1.2902,1.2838,1.2836,1.2834,0,0,0,0,0,0,0,0,0,0,0,0,0,1.3033,1.3075,1.2998,1.2972,1.2969,1.2939,1.2938,1.2937,1.2903,1.2902,1.2902,1.2902,1.2838,1.2836,1.2834,1.2823,0,0,1.2826,1.2825,0,0,0,0,0,0,0,0,1.3035,1.303,1.2977,1.2974,1.2971,1.2928,1.2942,1.2899,1.2903,1.2928,1.2902,1.2902,1.2867,1.2863,1.2852,1.282,1.2818,1.2826,1.2825,1.2824,1.2823,0,0,0,0,0,0,0,1.3038,1.3032,1.2975,1.2976,1.2972,1.2962,1.2956,1.2934,1.2899,1.2926,1.2923,1.2917,1.2866,1.2854,1.285,1.2817,1.2826,1.2824,1.2823,1.2822,1.2774,1.2774,0,0,0,0,0,0,1.3046,1.3035,1.2976,1.2973,1.3003,1.2961,1.2954,1.2942,1.29,1.2893,1.2917,1.2915,1.2858,1.2853,1.2848,1.2833,1.2824,1.2822,1.282,1.2773,1.2774,1.2774,0,0,0,0,0,0,1.3048,1.3041,1.2979,1.3003,1.2994,1.296,1.2947,1.2941,1.2929,1.2893,1.2886,1.2912,1.2858,1.2851,1.283,1.283,1.282,1.2818,1.2773,1.2773,1.2774,1.2803,0,0,0,0,0,0,1.305,1.3042,1.3038,1.3003,1.2993,1.2963,1.2947,1.294,1.2926,1.2923,1.2887,1.288,1.2857,1.2834,1.2828,1.2826,1.2816,1.2773,1.2773,1.2774,1.2801,1.2804,1.2806,0,0,0,0,0,1.3053,1.3048,1.3038,1.3032,1.2988,1.2963,1.2957,1.2933,1.2926,1.2922,1.2898,1.2881,1.2831,1.2832,1.2825,1.2823,1.2773,1.2773,1.2774,1.28,1.2803,1.2806,0,0,0,0,0,0,1.3082,1.3043,1.3032,1.3015,1.2993,1.2958,1.2951,1.2936,1.2914,1.2912,1.2881,1.2873,1.2855,1.2837,1.2838,1.281,1.28,1.2799,1.2823,1.2825,1.2827,1.2832,1.2814,0,0,0,0,0,1.3087,1.3071,1.3037,1.3026,1.3015,1.2986,1.2974,1.2957,1.2932,1.2922,1.2897,1.2872,1.2851,1.2837,1.2815,1.2799,1.279,1.2794,1.2796,1.2798,1.2797,1.2787,1.2788,1.2775,1.2775,1.2775,0,0,1.3096,1.3072,1.3064,1.3031,1.3012,1.2995,1.2978,1.2961,1.2947,1.2918,1.2897,1.2879,1.2849,1.283,1.2821,1.2814,1.2799,1.2799,1.2801,1.2798,1.2788,1.2789,1.279,1.2775,1.2775,1.2775,0,0,1.3104,1.3085,1.3073,1.3055,1.3027,1.3007,1.3005,1.2972,1.2958,1.2937,1.2915,1.2899,1.2863,1.2843,1.2828,1.2829,1.2813,1.2823,1.2834,1.2824,1.2825,1.2826,1.2826,1.2827,1.2823,1.2823,1.2823,0,1.3118,1.3093,1.3069,1.3054,1.304,1.3015,1.3002,1.2985,1.2951,1.2941,1.2935,1.289,1.2868,1.2844,1.2845,1.2834,1.2829,1.2827,1.2827,1.2828,1.2828,1.2828,1.2828,1.2824,1.2824,1.2824,1.2824,0,1.3112,1.3095,1.3089,1.3059,1.3044,1.303,1.3003,1.299,1.2975,1.2956,1.2934,1.2908,1.288,1.2874,1.2858,1.2848,1.2845,1.2834,1.2822,1.2831,1.283,1.283,1.2826,1.2826,1.2825,1.2825,0,0,1.3135,1.3093,1.3091,1.3077,1.3044,1.303,1.3015,1.299,1.298,1.2957,1.2943,1.2914,1.2904,1.2887,1.2869,1.286,1.2863,1.285,1.2849,1.2853,1.285,1.2858,1.2858,1.2852,1.2852,1.2852,1.2852,0,1.3138,1.3111,1.3089,1.307,1.3054,1.303,1.3017,1.2995,1.2977,1.296,1.2939,1.2919,1.2907,1.2897,1.2888,1.2865,1.2862,1.2864,1.2837,1.2837,1.2845,1.2858,1.2866,1.2867,1.2852,1.2852,1.2852,0,1.3137,1.3117,1.3097,1.3067,1.3059,1.3048,1.3023,1.3007,1.2982,1.2969,1.2951,1.2933,1.2915,1.2907,1.2881,1.2883,1.2871,1.2858,1.2857,1.2853,1.2844,1.2853,1.2867,1.2867,1.2851,1.2851,1.2851,0,1.3155,1.3123,1.3107,1.3095,1.306,1.3053,1.3037,1.3012,1.2999,1.2977,1.2968,1.2944,1.293,1.2912,1.2887,1.2883,1.2863,1.2853,1.2851,1.2852,1.2847,1.2847,1.2859,1.2841,1.2841,1.2841,1.2841,0,1.3159,1.3148,1.3115,1.3104,1.3091,1.3066,1.3052,1.3034,1.3012,1.2998,1.2976,1.2962,1.2931,1.2913,1.2893,1.2875,1.2869,1.2857,1.2852,1.2859,1.286,1.2849,1.2848,1.2841,1.2841,1.2841,1.2841,0,1.3177,1.3154,1.3135,1.3104,1.3096,1.3087,1.306,1.3048,1.303,1.3012,1.3006,1.2976,1.2954,1.2928,1.2897,1.2884,1.2866,1.2859,1.2875,1.2872,1.2872,1.2872,1.2876,1.2875,1.2859,1.2859,1.2859,0,1.3181,1.3172,1.314,1.313,1.3115,1.3098,1.3085,1.306,1.3047,1.3018,1.301,1.2987,1.2967,1.2933,1.2908,1.2884,1.2875,1.2878,1.2871,1.2879,1.2874,1.2875,1.2874,1.288,1.288,1.288,1.288,0,1.319,1.318,1.3162,1.3141,1.3126,1.3108,1.3088,1.308,1.3051,1.3037,1.3016,1.3001,1.297,1.2947,1.292,1.2903,1.2887,1.2883,1.2881,1.2888,1.2897,1.2891,1.288,1.2883,1.2883,1.2882,1.2882,1.2882,1.32,1.3191,1.3168,1.3149,1.3132,1.3115,1.3103,1.3084,1.3066,1.304,1.3026,1.3005,1.2979,1.2942,1.2926,1.2908,1.2902,1.29,1.2899,1.2898,1.29,1.2901,1.2903,1.2903,1.2903,1.2903,1.2903,0,1.3208,1.3192,1.3175,1.315,1.3135,1.3123,1.3101,1.3089,1.3071,1.305,1.3031,1.3006,1.2984,1.2958,1.2934,1.2924,1.2916,1.2919,1.2918,1.2915,1.2907,1.2911,1.2926,1.2926,1.2926,1.2926,1.2926,1.2926,1.321,1.3194,1.3181,1.3156,1.314,1.312,1.3109,1.3092,1.3075,1.3049,1.3031,1.3015,1.2991,1.2965,1.2944,1.2937,1.2929,1.2934,1.2924,1.2917,1.2915,1.2913,1.2916,1.2932,1.2932,1.2933,1.2933,1.2933]},{"header":{"parameterUnit":"m.s-1","parameterCategory":1,"la1":30.2991,"la2":30.254,"lo1":-89.0895,"lo2":-89.0444,"dy":0.0017,"dx":0.0017,"nx":28,"ny":28,"refTime":"2024-03-27T21:00:00:Z","depth":0,"parameterNumber":3,"parameterNumberName":"V-component_of_WINDS"},"data":[0,0,0,0,0,0,0,0,0,0,0,0,0,0,0,0,0,0,0,0,0,0,0,0,0,0,0,0,0,0,0,0,0,0,0,0,0,0,0,0,0,0,0,0,0,0,0,0,0,0,0,0,0,0,0,0,0,0,-6.3744,-6.3746,0,-6.3876,-6.3877,-6.3879,-6.3813,-6.381,-6.3806,-6.3803,-6.3934,-6.3941,-6.3947,0,0,0,0,0,0,0,0,0,0,0,0,0,-6.3433,-6.3439,-6.3744,-6.3746,-6.3747,-6.3876,-6.3878,-6.3879,-6.3814,-6.381,-6.3805,-6.3802,-6.3932,-6.394,-6.3948,0,0,0,0,0,0,0,0,0,0,0,0,0,-6.3567,-6.3441,-6.3744,-6.373,-6.373,-6.3875,-6.3878,-6.388,-6.3815,-6.381,-6.3804,-6.38,-6.3929,-6.3939,-6.3949,-6.4114,0,0,-6.398,-6.3984,0,0,0,0,0,0,0,0,-6.3559,-6.3578,-6.3731,-6.3731,-6.3732,-6.3823,-6.3816,-6.3958,-6.3816,-6.3783,-6.3803,-6.3797,-6.3901,-6.3913,-6.3949,-6.412,-6.4125,-6.3981,-6.3987,-6.3991,-6.3994,0,0,0,0,0,0,0,-6.355,-6.3572,-6.3796,-6.3733,-6.3734,-6.3717,-6.373,-6.3843,-6.3869,-6.3785,-6.3781,-6.3797,-6.39,-6.394,-6.3952,-6.4127,-6.398,-6.3989,-6.3995,-6.3999,-6.4442,-6.4447,0,0,0,0,0,0,-6.3542,-6.3565,-6.3792,-6.38,-6.3631,-6.3727,-6.3742,-6.3799,-6.3868,-6.3873,-6.3802,-6.3794,-6.3925,-6.394,-6.3956,-6.4155,-6.3991,-6.4,-6.4006,-6.4436,-6.4443,-6.4449,0,0,0,0,0,0,-6.3536,-6.3563,-6.3787,-6.3682,-6.3709,-6.3737,-6.3802,-6.3804,-6.3843,-6.388,-6.3884,-6.3837,-6.3921,-6.3942,-6.4076,-6.4158,-6.4005,-6.4014,-6.4429,-6.4438,-6.4446,-6.4553,0,0,0,0,0,0,-6.3527,-6.3561,-6.3624,-6.3684,-6.3715,-6.3905,-6.3807,-6.381,-6.3861,-6.3852,-6.3914,-6.392,-6.3919,-6.4061,-6.4086,-6.4169,-6.4022,-6.4422,-6.4433,-6.4443,-6.4542,-6.4564,-6.4583,0,0,0,0,0,-6.3516,-6.3648,-6.3628,-6.3656,-6.3795,-6.391,-6.3928,-6.3926,-6.3868,-6.3932,-6.3956,-6.3918,-6.4145,-6.4075,-6.4102,-6.419,-6.4417,-6.443,-6.4443,-6.4533,-6.456,-6.4582,0,0,0,0,0,0,-6.3596,-6.3655,-6.3634,-6.3789,-6.3845,-6.3899,-6.3979,-6.3954,-6.4026,-6.4015,-6.4008,-6.4022,-6.4162,-6.4189,-6.411,-6.4354,-6.4272,-6.4291,-6.4332,-6.4357,-6.4377,-6.4368,-6.403,0,0,0,0,0,-6.3632,-6.3722,-6.3768,-6.39,-6.393,-6.395,-6.4,-6.3994,-6.4051,-6.4074,-6.4108,-6.4164,-6.4249,-6.4304,-6.4384,-6.4546,-6.4559,-6.462,-6.464,-6.4656,-6.4673,-6.4762,-6.479,-6.4492,-6.4492,-6.4491,0,0,-6.3706,-6.375,-6.3806,-6.3918,-6.396,-6.4053,-6.397,-6.4071,-6.414,-6.4089,-6.4219,-6.4246,-6.4308,-6.4457,-6.4524,-6.4484,-6.4759,-6.4673,-6.4686,-6.4694,-6.4779,-6.4807,-6.4832,-6.4501,-6.4499,-6.4498,0,0,-6.389,-6.3931,-6.4047,-6.4093,-6.4159,-6.4172,-6.42,-6.4259,-6.4275,-6.4405,-6.4369,-6.445,-6.4595,-6.4642,-6.4685,-6.4889,-6.4857,-6.4914,-6.5021,-6.5108,-6.5132,-6.5152,-6.5226,-6.5253,-6.4931,-6.4931,-6.4931,0,-6.3973,-6.4113,-6.4109,-6.4215,-6.4265,-6.4225,-6.4342,-6.4386,-6.4475,-6.451,-6.4464,-6.4647,-6.4686,-6.4846,-6.4897,-6.4932,-6.4964,-6.4907,-6.5129,-6.515,-6.5169,-6.5239,-6.5267,-6.4938,-6.4937,-6.4936,-6.4936,0,-6.4213,-6.4311,-6.4396,-6.4485,-6.4545,-6.4655,-6.4668,-6.4729,-6.4718,-6.4736,-6.4869,-6.4915,-6.5004,-6.5041,-6.5031,-6.5201,-6.5174,-6.5129,-6.5046,-6.5204,-6.527,-6.5297,-6.4947,-6.4945,-6.4943,-6.4941,0,0,-6.445,-6.4537,-6.4569,-6.461,-6.4682,-6.4756,-6.4865,-6.4954,-6.5007,-6.507,-6.5161,-6.5286,-6.5245,-6.5294,-6.5288,-6.5364,-6.5525,-6.531,-6.5311,-6.5349,-6.5717,-6.5752,-6.5783,-6.5504,-6.5509,-6.5513,-6.5712,0,-6.4639,-6.4832,-6.4833,-6.501,-6.51,-6.5064,-6.5159,-6.5214,-6.5233,-6.5312,-6.5333,-6.5423,-6.5361,-6.5391,-6.5465,-6.549,-6.5599,-6.5475,-6.5589,-6.5593,-6.5575,-6.5817,-6.5854,-6.6039,-6.5738,-6.5742,-6.5745,0,-6.4885,-6.4959,-6.5146,-6.5207,-6.5245,-6.533,-6.5413,-6.5489,-6.555,-6.5559,-6.5615,-6.5598,-6.5708,-6.5623,-6.5775,-6.5691,-6.5738,-6.5757,-6.5765,-6.5776,-6.5679,-6.5836,-6.6098,-6.6127,-6.5786,-6.5782,-6.5779,0,-6.5041,-6.5186,-6.5318,-6.5353,-6.5427,-6.5488,-6.5522,-6.5578,-6.5632,-6.5703,-6.5738,-6.5821,-6.5867,-6.5931,-6.5937,-6.5874,-6.6092,-6.6006,-6.6103,-6.6103,-6.615,-6.6147,-6.6425,-6.6179,-6.6179,-6.6178,-6.6178,0,-6.5253,-6.5369,-6.5389,-6.547,-6.5599,-6.5599,-6.5726,-6.5754,-6.5804,-6.589,-6.5863,-6.5943,-6.5946,-6.6028,-6.6033,-6.616,-6.618,-6.6191,-6.6191,-6.6194,-6.6193,-6.6225,-6.6212,-6.6186,-6.6184,-6.6183,-6.6181,0,-6.5448,-6.5466,-6.5607,-6.5666,-6.5684,-6.5777,-6.5827,-6.5904,-6.5921,-6.603,-6.6055,-6.6083,-6.6179,-6.6191,-6.6302,-6.6305,-6.6458,-6.6444,-6.6439,-6.6437,-6.6533,-6.6525,-6.6842,-6.6884,-6.661,-6.6612,-6.6614,0,-6.5583,-6.5672,-6.5741,-6.5797,-6.5835,-6.5925,-6.5981,-6.5984,-6.6043,-6.6121,-6.6189,-6.6282,-6.6357,-6.6511,-6.6541,-6.6626,-6.6614,-6.672,-6.6627,-6.6628,-6.6617,-6.6613,-6.6622,-6.6738,-6.6741,-6.6743,-6.6745,0,-6.582,-6.5825,-6.5907,-6.5994,-6.6062,-6.6129,-6.6192,-6.624,-6.6251,-6.6319,-6.6418,-6.6476,-6.6591,-6.6684,-6.6769,-6.6802,-6.6776,-6.6774,-6.6801,-6.6806,-6.68,-6.6806,-6.6489,-6.6767,-6.6765,-6.6763,-6.6762,-6.6761,-6.599,-6.6068,-6.613,-6.6223,-6.6272,-6.6332,-6.6408,-6.6437,-6.6519,-6.6615,-6.6611,-6.672,-6.678,-6.6891,-6.6931,-6.7015,-6.6981,-6.7019,-6.7029,-6.7039,-6.705,-6.6786,-6.703,-6.703,-6.7029,-6.7029,-6.7028,0,-6.6227,-6.6265,-6.6351,-6.6442,-6.6516,-6.6487,-6.6556,-6.6619,-6.6716,-6.6774,-6.685,-6.6964,-6.7055,-6.7092,-6.7181,-6.7242,-6.7233,-6.7265,-6.7261,-6.727,-6.7075,-6.7043,-6.7272,-6.7272,-6.7272,-6.7272,-6.7272,-6.7272,-6.6359,-6.649,-6.6503,-6.6658,-6.6696,-6.6804,-6.6846,-6.6902,-6.6949,-6.7079,-6.7155,-6.7179,-6.723,-6.7323,-6.7405,-6.7414,-6.7448,-6.7487,-6.749,-6.7308,-6.7283,-6.726,-6.723,-6.7494,-6.7494,-6.7678,-6.768,-6.7681]}]]